Location: Unspecified
(40.7945°N, 0.0000°E)
Time: 12:32:19
(UTC+00:00)

AIST 2D - Pass Details

Date: 27 July 2019
Orbit: 458 x 470 km, 97.2° (Epoch: 21 August)

Event Time Altitude Azimuth Distance (km) Brightness Sun altitude
Rises 23:46:36 0° 354° (N) 2,519 ? -29.9°
Reaches altitude 10° 23:49:10 10° 334° (NNW) 1,638 ? -30.0°
Enters shadow 23:50:17 15° 317° (NW) 1,372 ? -30.0°
